This is the latest recevied weather packets stored in our database for station/object OZ1IEP-5. If no packets are shown the sender has not sent any weather packets the latest 10 day(s).
| Time | Temp. | Humidity | Pressure | Rain* | Wind** | Luminosity | Snow |
|---|---|---|---|---|---|---|---|
| 1777793408 | 12.22° C | 91% | 1009.9 hPa | 0 mm | - | 193 W/m² | - |
| 1777792805 | 12.22° C | 91% | 1009.8 hPa | 0 mm | - | 158 W/m² | - |
| 1777792206 | 11.67° C | 91% | 1009.8 hPa | 0 mm | - | 125 W/m² | - |
| 1777791608 | 11.67° C | 92% | 1009.8 hPa | 0 mm | - | 90 W/m² | - |
| 1777791006 | 11.67° C | 92% | 1009.7 hPa | 0 mm | - | 86 W/m² | - |
| 1777790406 | 11.11° C | 92% | 1009.8 hPa | 0 mm | - | 132 W/m² | - |
| 1777789808 | 11.11° C | 92% | 1009.7 hPa | 0 mm | - | 88 W/m² | - |
| 1777789206 | 11.11° C | 92% | 1009.8 hPa | 0 mm | - | 148 W/m² | - |
| 1777788606 | 10.56° C | 92% | 1009.8 hPa | 0 mm | - | 113 W/m² | - |
| 1777788008 | 10.56° C | 92% | 1009.8 hPa | 0 mm | - | 100 W/m² | - |
| 1777787406 | 10.56° C | 92% | 1009.9 hPa | 0 mm | - | 65 W/m² | - |
| 1777786805 | 10.56° C | 92% | 1009.8 hPa | 0 mm | - | 47 W/m² | - |
| 1777786208 | 10.56° C | 91% | 1009.9 hPa | 0 mm | - | 47 W/m² | - |
| 1777785606 | 10.56° C | 91% | 1009.9 hPa | 0 mm | - | 56 W/m² | - |
| 1777785006 | 10.56° C | 91% | 1009.8 hPa | 0 mm | - | 26 W/m² | - |
| 1777784408 | 11.11° C | 91% | 1009.8 hPa | 0 mm | - | 21 W/m² | - |
| 1777783805 | 11.11° C | 91% | 1009.8 hPa | 0 mm | - | 25 W/m² | - |
| 1777783206 | 11.11° C | 91% | 1009.7 hPa | 0 mm | - | 14 W/m² | - |
| 1777782609 | 11.11° C | 91% | 1009.7 hPa | 0 mm | - | 18 W/m² | - |
| 1777782006 | 11.11° C | 90% | 1009.8 hPa | 0 mm | - | 12 W/m² | - |
| 1777781406 | 11.11° C | 90% | 1009.8 hPa | 0 mm | - | 11 W/m² | - |
| 1777780808 | 11.11° C | 90% | 1009.8 hPa | 0 mm | - | 7 W/m² | - |
| 1777780205 | 10.56° C | 89% | 1009.7 hPa | 0 mm | - | 7 W/m² | - |
| 1777779605 | 10° C | 87% | 1009.4 hPa | 0 mm | - | 9 W/m² | - |
| 1777779008 | 10.56° C | 87% | 1009.4 hPa | 0 mm | - | 0 W/m² | - |
* Rain latest hour (hover to see other rain measurements)
** Current wind speed in m/s (hover to see current wind gust speed)